Regional Weather Roundup
Issued by NWS

Home | Current Version | Previous Version | Graphics & Text | Print | Product List | Glossary On
Versions: 1 2 3 4 5 6 7 8 9 10 11 12 13 14 15 16 17 18 19 20 21 22 23 24 25 26 27 28 29 30 31 32 33 34 35 36 37 38 39 40 41 42 43 44 45 46 47 48 49 50
000
ASUS43 KBIS 180710
RWRND

NORTH DAKOTA REGIONAL WEATHER ROUNDUP
NATIONAL WEATHER SERVICE BISMARCK ND
100 AM CST WED JAN 18 2017

NOTE: "FAIR" INDICATES FEW OR NO CLOUDS BELOW 12,000 FEET WITH NO
SIGNIFICANT WEATHER AND/OR OBSTRUCTIONS TO VISIBILITY.


NDZ001>003-009>011-017-180800-
NORTHWEST NORTH DAKOTA

CITY           SKY/WX    TMP DP  RH WIND       PRES   REMARKS
WILLISTON      FAIR      30  22  72 SW13      29.69F WCI  20
MINOT          FAIR      38  27  64 SW18      29.64F
MINOT AFB      CLOUDY    34  27  75 W14       29.63F
$$

NDZ018>021-031>035-040>046-180800-
SOUTHWEST NORTH DAKOTA

CITY           SKY/WX    TMP DP  RH WIND       PRES   REMARKS
BISMARCK       FAIR      24  17  74 CALM      29.76F
DICKINSON      FAIR      33  21  61 W5        29.75S
GARRISON         N/A     30  22  72 W6        29.69F
HETTINGER ARPT CLOUDY    28  18  66 CALM      29.81F
$$

NDZ004>008-012>016-024-026-027-054-180800-
NORTHEAST NORTH DAKOTA

CITY           SKY/WX    TMP DP  RH WIND       PRES   REMARKS
GRAND FORKS    CLOUDY    23  16  74 S14       29.68S WCI  11
GRND FRKS AFB  CLOUDY    26  19  73 SW13      29.66F WCI  15
DEVILS LAKE    FAIR      28  23  81 SW12      29.64F WCI  18
$$

NDZ022-023-025-028>030-036>039-047>053-180800-
SOUTHEAST NORTH DAKOTA

CITY           SKY/WX    TMP DP  RH WIND       PRES   REMARKS
FARGO          CLOUDY    22  18  85 S12       29.76F WCI  10
JAMESTOWN      FAIR      28  19  69 W14       29.72F WCI  17
$$




USA.gov is the U.S. government's official web portal to all federal, state and local government web resources and services.